Tillbaka till svenska Fidonet
English   Information   Debug  
FILM   0/18
FNEWS_PUBLISH   4926
FN_SYSOP   42201
FN_SYSOP_OLD1   71952
FTP_FIDO   0/2
FTSC_PUBLIC   0/13973
FUNNY   0/4886
GENEALOGY.EUR   0/71
GET_INFO   105
GOLDED   0/408
HAM   14548/16661
HOLYSMOKE   0/6791
HOT_SITES   0/1
HTMLEDIT   0/71
HUB203   466
HUB_100   264
HUB_400   39
HUMOR   0/29
IC   0/2851
INTERNET   0/424
INTERUSER   0/3
IP_CONNECT   719
JAMNNTPD   0/233
JAMTLAND   0/47
KATTY_KORNER   0/41
LAN   0/16
LINUX-USER   0/19
LINUXHELP   0/1155
LINUX   0/22300
LINUX_BBS   0/957
mail   18.68
mail_fore_ok   249
MENSA   0/341
MODERATOR   0/102
MONTE   0/992
MOSCOW_OKLAHOMA   0/1245
MUFFIN   0/783
MUSIC   0/321
N203_STAT   938
N203_SYSCHAT   313
NET203   321
NET204   69
NET_DEV   0/10
NORD.ADMIN   0/101
NORD.CHAT   0/2572
NORD.FIDONET   189
NORD.HARDWARE   0/28
NORD.KULTUR   0/114
NORD.PROG   0/32
NORD.SOFTWARE   0/88
NORD.TEKNIK   0/58
NORD   0/453
OCCULT_CHAT   0/93
OS2BBS   0/787
OS2DOSBBS   0/580
OS2HW   0/42
OS2INET   0/37
OS2LAN   0/134
OS2PROG   0/36
OS2REXX   0/113
OS2USER-L   207
OS2   0/4830
OSDEBATE   16670/18996
PASCAL   0/490
PERL   0/457
PHP   0/45
POINTS   0/405
POLITICS   0/29554
POL_INC   0/14731
PSION   103
R20_ADMIN   1133
R20_AMATORRADIO   0/2
R20_BEST_OF_FIDONET   16
R20_CHAT   0/896
R20_DEPP   0/3
R20_DEV   400
R20_ECHO2   1831
R20_ECHOPRES   0/35
R20_ESTAT   0/719
R20_FIDONETPROG...
...RAM.MYPOINT
  0/2
R20_FIDONETPROGRAM   0/22
R20_FIDONET   0/248
R20_FILEFIND   0/24
R20_FILEFOUND   0/22
R20_HIFI   0/3
R20_INFO2   3724
R20_INTERNET   0/12940
R20_INTRESSE   0/60
R20_INTR_KOM   0/99
R20_KANDIDAT.CHAT   42
R20_KANDIDAT   28
R20_KOM_DEV   112
R20_KONTROLL   0/13360
R20_KORSET   0/18
R20_LOKALTRAFIK   0/24
R20_MODERATOR   0/1852
R20_NC   76
R20_NET200   245
R20_NETWORK.OTH...
...ERNETS
  0/13
R20_OPERATIVSYS...
...TEM.LINUX
  0/44
R20_PROGRAMVAROR   0/1
R20_REC2NEC   534
R20_SFOSM   0/341
R20_SF   0/108
R20_SPRAK.ENGLISH   0/1
R20_SQUISH   107
R20_TEST   2
R20_WORST_OF_FIDONET   20
RAR   0/9
RA_MULTI   106
RA_UTIL   0/162
REGCON.EUR   0/2068
REGCON   0/13
SCIENCE   0/1206
SF   0/239
SHAREWARE_SUPPORT   0/5146
SHAREWRE   0/14
SIMPSONS   0/169
STATS_OLD1   0/2539.065
STATS_OLD2   0/2530
STATS_OLD3   0/2395.095
STATS_OLD4   0/1692.25
SURVIVOR   0/495
SYSOPS_CORNER   0/3
SYSOP   0/84
TAGLINES   0/112
TEAMOS2   0/4530
TECH   0/2617
TEST.444   0/105
TRAPDOOR   0/19
TREK   0/755
TUB   0/290
UFO   0/40
UNIX   0/1316
USA_EURLINK   0/102
USR_MODEMS   0/1
VATICAN   0/2740
VIETNAM_VETS   0/14
VIRUS   0/378
VIRUS_INFO   0/201
VISUAL_BASIC   0/473
WHITEHOUSE   0/5187
WIN2000   0/101
WIN32   0/30
WIN95   0/4291
WIN95_OLD1   0/70272
WINDOWS   0/1517
WWB_SYSOP   0/419
WWB_TECH   0/810
ZCC-PUBLIC   0/1
ZEC   4

 
4DOS   0/134
ABORTION   0/7
ALASKA_CHAT   0/506
ALLFIX_FILE   0/1313
ALLFIX_FILE_OLD1   0/7997
ALT_DOS   0/152
AMATEUR_RADIO   0/1039
AMIGASALE   0/14
AMIGA   0/331
AMIGA_INT   0/1
AMIGA_PROG   0/20
AMIGA_SYSOP   0/26
ANIME   0/15
ARGUS   0/924
ASCII_ART   0/340
ASIAN_LINK   0/651
ASTRONOMY   0/417
AUDIO   0/92
AUTOMOBILE_RACING   0/105
BABYLON5   0/17862
BAG   135
BATPOWER   0/361
BBBS.ENGLISH   0/382
BBSLAW   0/109
BBS_ADS   0/5290
BBS_INTERNET   0/507
BIBLE   0/3563
BINKD   0/1119
BINKLEY   0/215
BLUEWAVE   0/2173
CABLE_MODEMS   0/25
CBM   0/46
CDRECORD   0/66
CDROM   0/20
CLASSIC_COMPUTER   0/378
COMICS   0/15
CONSPRCY   0/899
COOKING   41445
COOKING_OLD1   0/24719
COOKING_OLD2   0/40862
COOKING_OLD3   0/37489
COOKING_OLD4   0/35496
COOKING_OLD5   9370
C_ECHO   0/189
C_PLUSPLUS   0/31
DIRTY_DOZEN   0/201
DOORGAMES   0/2285
DOS_INTERNET   0/196
duplikat   6102
ECHOLIST   0/18295
EC_SUPPORT   0/318
ELECTRONICS   0/359
ELEKTRONIK.GER   1534
ENET.LINGUISTIC   0/13
ENET.POLITICS   0/4
ENET.SOFT   0/11701
ENET.SYSOP   34296
ENET.TALKS   0/32
ENGLISH_TUTOR   0/2000
EVOLUTION   0/1335
FDECHO   0/217
FDN_ANNOUNCE   0/7068
FIDONEWS   25062
FIDONEWS_OLD1   0/49742
FIDONEWS_OLD2   0/35949
FIDONEWS_OLD3   397/30874
FIDONEWS_OLD4   0/37224
FIDO_SYSOP   12922
FIDO_UTIL   0/180
FILEFIND   0/209
FILEGATE   0/212
Möte HAM, 16661 texter
 lista första sista föregående nästa
Text 2052, 816 rader
Skriven 2008-01-25 01:00:30 av Amsat List (1:323/120.0)
Ärende: [keps]  orb08024.amsa
=============================
[keps]  orb08024.amsa

Return-Path: <keps-bounces@amsat.org>
X-Rcpt: craig.healy@chowda.com
X-UIDL: 1201238400.10783

SB KEPS @ AMSAT  $ORB08024.O
Orbital Elements  08024.OSCAR

HR AMSAT ORBITAL ELEMENTS FOR OSCAR SATELLITES
FROM WA5QGD FORT WORTH,TX January 24, 2008
Send Subscribe/unsubscribe to KEPS at 
http://www.amsat.org/mailman/listinfo/keps
BID: ORB08024.O
TO ALL RADIO AMATEURS BT

Satellite: AO-07
Catalog number: 07530
Epoch time:      08024.04584029
Element set:      86
Inclination:      101.4871 deg
RA of node:       060.2997 deg
Eccentricity:    0.0011943
Arg of perigee:   184.9644 deg
Mean anomaly:     175.1306 deg
Mean motion:   12.53573275 rev/day
Decay rate:       -2.7e-07 rev/day^2
Epoch rev:           51879
Checksum:              305

Satellite: AO-10
Catalog number: 14129
Epoch time:      08022.10031558
Element set:    0464
Inclination:      025.9369 deg
RA of node:       234.4013 deg
Eccentricity:    0.6036913
Arg of perigee:   092.1624 deg
Mean anomaly:     333.5762 deg
Mean motion:   02.05872801 rev/day
Decay rate:      -2.70e-06 rev/day^2
Epoch rev:           18507
Checksum:              273

Satellite: UO-11
Catalog number: 14781
Epoch time:      08024.19695841
Element set:     578
Inclination:      098.1716 deg
RA of node:       055.9317 deg
Eccentricity:    0.0009131
Arg of perigee:   174.1829 deg
Mean anomaly:     185.9490 deg
Mean motion:   14.79614008 rev/day
Decay rate:       3.73e-06 rev/day^2
Epoch rev:           28241
Checksum:              324

Satellite: RS-15
Catalog number: 23439
Epoch time:      08023.91400468
Element set:    0111
Inclination:      064.8182 deg
RA of node:       009.9674 deg
Eccentricity:    0.0151468
Arg of perigee:   150.4148 deg
Mean anomaly:     210.5451 deg
Mean motion:   11.27551795 rev/day
Decay rate:       -3.9e-07 rev/day^2
Epoch rev:           53858
Checksum:              301

Satellite: FO-29
Catalog number: 24278
Epoch time:      08024.54391470
Element set:     690
Inclination:      098.5808 deg
RA of node:       319.7761 deg
Eccentricity:    0.0349957
Arg of perigee:   229.8831 deg
Mean anomaly:     127.1155 deg
Mean motion:   13.52934687 rev/day
Decay rate:       -5.9e-07 rev/day^2
Epoch rev:           56483
Checksum:              360

Satellite: SO-33
Catalog number: 25509
Epoch time:      08024.42910992
Element set:     117
Inclination:      031.4311 deg
RA of node:       054.8470 deg
Eccentricity:    0.0353758
Arg of perigee:   201.5539 deg
Mean anomaly:     156.9852 deg
Mean motion:   14.28196931 rev/day
Decay rate:       4.43e-06 rev/day^2
Epoch rev:           48290
Checksum:              307

Satellite: AO-40
Catalog number: 26609
Epoch time:      08022.30483958
Element set:     999
Inclination:      007.3273 deg
RA of node:       101.2332 deg
Eccentricity:    0.7928087
Arg of perigee:   044.3127 deg
Mean anomaly:     356.2712 deg
Mean motion:   01.25581889 rev/day
Decay rate:      -4.10e-06 rev/day^2
Epoch rev:            3319
Checksum:              307

Satellite: VO-52
Catalog number: 28650
Epoch time:      08024.32381648
Element set:     838
Inclination:      097.8082 deg
RA of node:       094.7981 deg
Eccentricity:    0.0026086
Arg of perigee:   252.5295 deg
Mean anomaly:     107.3029 deg
Mean motion:   14.81412216 rev/day
Decay rate:       -2.0e-07 rev/day^2
Epoch rev:           14715
Checksum:              304

Satellite: PO-63
Catalog number: 29712
Epoch time:      08024.75304218
Element set:     126
Inclination:      097.8951 deg
RA of node:       085.5428 deg
Eccentricity:    0.0015061
Arg of perigee:   128.0778 deg
Mean anomaly:     232.1784 deg
Mean motion:   14.79997288 rev/day
Decay rate:       5.52e-06 rev/day^2
Epoch rev:            5610
Checksum:              325

/EX
SB KEPS @ AMSAT  $ORB08024.D
Orbital Elements  08024.MICROS

HR AMSAT ORBITAL ELEMENTS FOR THE MICROSATS
FROM WA5QGD FORT WORTH,TX January 24, 2008
Send Subscribe/unsubscribe to KEPS at 
http://www.amsat.org/mailman/listinfo/keps
BID: ORB08024.D
TO ALL RADIO AMATEURS BT

Satellite: AO-16
Catalog number: 20439
Epoch time:      08024.06348583
Element set:     235
Inclination:      098.2145 deg
RA of node:       011.6580 deg
Eccentricity:    0.0009961
Arg of perigee:   249.0648 deg
Mean anomaly:     110.9482 deg
Mean motion:   14.31782536 rev/day
Decay rate:        1.7e-07 rev/day^2
Epoch rev:           94015
Checksum:              297

Satellite: LO-19
Catalog number: 20442
Epoch time:      08024.06503961
Element set:     158
Inclination:      098.1912 deg
RA of node:       020.5967 deg
Eccentricity:    0.0011084
Arg of perigee:   245.1244 deg
Mean anomaly:     114.8783 deg
Mean motion:   14.32021214 rev/day
Decay rate:       -8.7e-07 rev/day^2
Epoch rev:           94030
Checksum:              270

Satellite: AO-27
Catalog number: 22825
Epoch time:      08024.00479406
Element set:     881
Inclination:      098.3635 deg
RA of node:       349.6253 deg
Eccentricity:    0.0008378
Arg of perigee:   336.4256 deg
Mean anomaly:     023.6532 deg
Mean motion:   14.29228459 rev/day
Decay rate:       -6.4e-07 rev/day^2
Epoch rev:           74703
Checksum:              320

Satellite: IO-26
Catalog number: 22826
Epoch time:      08024.01401989
Element set:     583
Inclination:      098.3560 deg
RA of node:       350.6105 deg
Eccentricity:    0.0008619
Arg of perigee:   332.4326 deg
Mean anomaly:     027.6402 deg
Mean motion:   14.29476386 rev/day
Decay rate:     -.00000000 rev/day^2
Epoch rev:           74712
Checksum:              284

